Theta_e
318 319 321 326 328 329 328 328 329 328 329 324 320 323 319 319 323 321 320 319 320 319 317 319 318 318 318 316 316 316 315 317 318 328 329 317 319 317 313 313 313 315 317 319 323 330 332 331 329 326 323 322 325 328 329 329 328 328 330 330 330 328 329 332 332 332 334 335 335 336 336 335 334 333 332 331 330 329 329 330 331 332 332 334 334 332 329 324 320 319 320 320 319 318 317 315 313
317 318 322 327 328 329 327 328 337 334 327 322 318 321 317 321 324 320 321 320 320 318 318 319 317 317 316 315 315 316 315 316 317 319 318 315 317 314 313 313 313 315 317 319 320 326 328 327 325 324 322 319 322 326 328 331 330 327 329 330 330 329 328 329 330 332 334 335 335 335 336 336 336 336 334 333 333 332 330 330 330 331 332 332 334 334 333 330 324 319 318 319 320 319 318 316 314
317 319 322 327 329 328 328 331 336 332 326 321 318 321 319 319 321 321 321 318 318 317 318 318 317 316 315 316 315 316 315 315 317 317 317 318 319 317 315 313 313 314 316 317 317 321 321 317 315 316 320 322 324 326 327 330 331 329 330 328 327 328 328 328 329 329 331 333 334 335 335 335 335 336 335 334 333 333 332 331 330 330 331 331 332 333 333 334 330 323 317 316 317 318 318 316 314
318 321 323 326 329 327 335 340 338 331 323 322 319 322 322 319 321 320 318 316 318 317 317 317 317 316 315 316 314 315 315 315 317 317 318 318 319 318 314 313 313 313 314 315 315 317 317 313 312 313 317 321 325 328 326 327 329 329 331 330 327 325 324 326 328 327 329 331 332 332 332 334 334 334 335 334 332 332 332 331 332 330 329 330 331 330 331 333 334 331 324 319 318 317 316 316 315
319 322 322 324 329 326 333 336 336 334 323 325 322 320 323 320 321 318 316 316 316 316 316 316 316 314 313 314 314 315 314 315 316 318 318 317 318 317 315 315 313 313 313 314 314 314 313 313 313 313 313 316 320 324 325 325 327 328 330 330 329 327 325 326 327 327 327 329 330 331 331 331 331 330 331 332 330 330 330 330 331 330 328 328 329 328 327 330 334 334 331 328 325 323 320 319 318
320 323 323 323 325 324 332 326 322 326 321 326 323 318 322 318 317 316 315 316 315 315 316 316 315 314 313 312 313 313 313 314 316 317 317 315 316 316 316 315 314 314 314 313 314 313 313 313 313 313 313 313 315 317 321 323 325 327 329 331 330 330 329 329 329 328 326 327 328 329 331 330 329 328 328 329 328 328 330 330 329 329 328 328 328 327 326 327 331 333 333 332 329 329 327 326 325
321 322 322 324 323 322 335 329 319 322 317 320 322 320 320 315 315 316 316 316 316 315 316 316 314 314 313 313 312 312 312 313 313 313 314 313 314 314 314 314 314 314 314 314 314 314 314 313 313 313 313 313 313 314 316 318 323 326 328 330 331 331 331 330 331 331 330 329 327 325 327 327 326 327 327 328 328 328 329 328 327 328 329 329 328 328 326 325 328 331 332 332 331 331 331 329 329
321 321 321 328 331 330 337 330 322 324 317 316 318 319 317 315 315 316 316 316 316 314 314 315 314 314 312 312 311 311 311 311 311 311 312 312 311 312 312 312 313 313 314 315 314 315 314 314 314 313 313 313 314 314 314 316 320 324 327 329 330 331 331 332 333 332 332 332 331 329 329 329 327 327 327 328 329 328 327 327 327 328 328 329 329 328 327 326 326 328 331 332 332 332 332 331 330
320 322 321 326 333 334 332 324 320 320 318 317 316 316 316 315 315 316 316 315 315 313 313 314 314 314 311 310 310 310 310 310 310 310 310 310 310 310 310 311 311 311 312 312 313 313 312 312 312 313 313 312 313 313 314 315 316 320 324 327 329 330 331 331 332 333 333 333 332 332 332 332 331 329 326 324 326 328 328 328 329 326 324 325 327 328 329 327 326 326 329 332 333 332 332 332 332
320 322 321 327 334 331 325 321 320 318 317 317 315 315 316 315 315 315 315 314 314 312 313 313 313 313 310 310 309 308 309 309 309 309 309 309 309 309 309 310 309 309 309 309 310 310 310 310 310 310 310 310 311 311 312 313 314 315 318 321 325 327 329 330 331 332 333 333 333 333 333 333 333 332 328 324 321 323 326 328 328 326 324 323 323 326 330 328 327 327 327 330 332 333 332 332 332
320 320 322 332 334 324 321 321 319 317 317 316 315 315 315 316 315 313 314 314 313 312 312 313 312 310 309 309 308 307 308 308 309 308 308 308 308 309 309 309 309 309 308 308 308 308 308 308 308 308 308 308 308 308 309 309 310 311 313 314 317 321 324 326 328 329 330 331 332 332 332 332 333 333 332 330 325 321 321 321 320 321 323 325 324 325 328 329 327 327 327 328 330 331 333 332 332
320 323 334 340 330 321 320 322 318 318 320 319 316 315 315 315 315 313 313 313 313 313 312 313 313 311 310 308 306 307 308 308 308 307 307 308 308 308 308 308 309 308 307 307 307 307 307 307 307 307 307 306 306 306 306 307 307 308 309 309 311 313 315 318 321 323 326 328 329 331 331 332 332 332 332 332 331 328 324 318 316 316 317 322 327 327 326 327 327 328 327 328 329 330 331 332 332
319 323 337 331 325 324 321 321 319 321 322 319 315 314 316 314 315 313 312 312 311 313 313 312 313 312 310 307 305 306 307 307 307 307 307 307 307 307 307 308 307 307 306 305 306 306 306 306 306 306 306 306 306 306 306 306 306 306 306 306 307 308 309 311 313 316 319 321 323 326 328 329 329 330 330 331 332 332 330 326 320 317 315 317 323 326 325 324 325 327 327 327 328 329 330 330 330
317 320 327 323 324 325 320 321 320 323 320 316 316 314 316 314 314 313 314 314 310 311 312 311 313 312 309 306 305 304 305 306 306 306 306 307 307 306 306 306 306 305 304 304 305 305 305 305 305 306 306 306 306 306 306 306 306 306 306 306 306 306 306 307 308 310 312 315 318 319 320 321 323 323 325 327 328 330 331 330 326 322 319 317 316 319 321 323 323 324 326 327 328 328 329 329 329
317 319 328 328 329 324 319 321 322 325 318 315 317 314 315 313 313 313 314 315 310 310 311 311 312 313 310 308 305 303 304 305 305 305 306 306 305 305 304 304 304 304 304 304 304 304 305 305 305 306 305 305 305 304 304 304 304 305 305 306 306 306 305 305 305 306 307 310 314 318 320 319 319 319 319 321 322 325 326 327 327 326 325 322 317 314 316 321 322 322 323 325 327 327 328 328 329
317 321 333 332 327 322 318 319 322 323 315 314 315 314 314 311 313 312 311 313 310 309 311 310 309 310 308 307 304 302 303 304 304 305 305 305 304 304 304 304 304 304 304 304 304 304 304 305 305 305 304 303 302 302 301 301 301 301 302 303 304 305 305 305 305 304 305 305 308 313 319 321 321 320 319 318 318 318 320 322 325 326 327 327 324 320 318 321 323 322 321 323 325 326 326 326 327
318 326 338 333 325 320 317 319 321 319 314 314 313 314 314 309 311 310 310 312 309 307 308 306 306 306 305 304 303 303 303 303 304 304 305 305 305 305 305 304 304 304 304 304 304 304 304 304 304 303 303 302 301 301 300 300 300 300 300 300 300 301 302 303 303 304 304 304 304 306 311 318 322 323 323 322 320 319 319 321 323 324 326 328 328 326 325 325 326 324 321 321 323 324 325 326 326
322 333 331 327 327 318 316 319 317 316 315 314 313 314 314 310 310 310 310 309 306 305 305 304 304 303 303 303 302 303 303 303 304 304 305 305 304 304 304 304 304 304 303 303 303 303 303 303 302 302 302 301 301 300 300 300 300 300 299 299 299 299 299 300 300 301 302 303 303 303 305 310 316 319 321 323 324 324 324 324 324 324 326 326 326 325 325 325 324 323 323 323 324 324 325 325 325
322 332 325 328 331 316 314 316 312 314 315 313 313 313 313 312 310 310 310 306 304 304 303 302 303 302 302 302 303 303 304 304 304 304 304 303 303 303 302 302 302 302 302 301 301 301 301 300 300 300 300 300 300 300 300 299 299 299 299 299 299 299 299 299 299 299 299 300 301 302 302 304 309 313 317 319 321 323 325 326 326 326 326 326 324 324 325 324 320 319 324 326 325 324 324 326 325
318 322 323 331 328 314 312 315 313 315 314 312 312 312 313 312 311 310 308 305 305 304 303 303 302 302 302 303 303 304 303 303 303 303 303 302 301 301 301 300 300 300 299 299 299 299 299 299 299 299 298 299 299 299 298 298 298 298 298 298 298 298 298 298 299 298 298 298 298 299 300 301 304 307 311 315 317 319 321 323 325 326 326 327 326 325 325 323 320 320 323 326 325 324 324 325 325
316 316 322 324 317 313 314 314 314 314 313 313 312 312 312 311 312 309 307 308 306 304 305 305 304 303 302 302 302 302 302 302 302 302 302 301 301 300 300 299 299 298 298 298 298 298 298 297 297 297 297 297 297 297 297 297 297 297 297 297 297 297 297 298 298 298 298 298 297 297 298 299 300 301 304 309 313 316 318 320 321 323 324 325 326 327 327 325 323 322 324 325 325 326 327 326 326
316 315 318 317 313 314 314 313 315 314 313 313 311 312 313 311 310 308 308 311 308 305 306 306 305 304 303 302 302 301 301 302 301 301 301 301 300 300 299 299 299 298 298 298 297 297 297 296 296 296 296 296 296 296 296 296 296 296 296 296 296 297 297 297 297 297 297 298 297 296 296 297 298 299 300 302 307 311 314 316 318 320 321 323 324 325 327 327 325 322 321 322 325 327 327 326 326
317 317 314 314 313 314 314 313 314 313 313 312 311 313 312 310 309 307 308 310 307 306 306 305 304 303 302 302 301 301 301 301 301 300 300 299 299 299 299 298 298 298 297 296 296 296 296 296 296 296 296 296 296 296 296 296 296 296 296 296 296 296 296 296 296 297 297 297 297 297 296 296 296 297 298 298 300 304 308 311 314 316 318 320 322 323 323 325 326 324 321 319 322 326 327 326 326
317 318 315 314 314 314 314 313 313 313 313 311 311 312 311 311 310 307 305 306 305 305 304 304 303 302 302 301 300 301 301 300 300 299 298 298 297 297 296 296 296 296 295 295 295 295 295 295 295 295 295 295 295 295 295 295 296 296 296 296 296 296 296 296 296 296 296 296 296 296 296 296 296 295 296 297 297 298 301 305 308 311 314 317 320 322 322 323 324 325 325 322 319 320 322 325 327
316 318 315 314 315 315 314 313 313 313 312 311 311 311 311 312 310 306 303 304 304 303 303 303 302 301 301 301 300 300 300 299 298 298 297 297 296 296 295 295 294 294 294 294 294 294 294 294 295 295 295 295 295 295 295 295 295 295 295 295 295 295 295 296 296 296 295 295 295 295 295 296 296 295 295 295 296 296 297 299 302 305 308 311 316 319 320 321 322 322 324 325 323 321 318 320 325
315 316 314 313 315 314 314 314 313 313 312 311 312 311 309 310 310 306 302 303 303 302 303 302 301 301 301 301 300 300 300 299 298 297 297 296 296 296 296 295 294 294 294 294 294 294 294 294 295 295 295 295 295 295 295 295 295 295 295 295 295 295 295 295 295 295 295 295 295 295 295 295 295 295 295 294 294 295 296 296 298 300 303 305 310 315 318 319 321 321 322 324 326 326 322 319 323
314 314 313 313 313 313 313 314 313 313 312 311 314 313 309 307 310 309 303 302 303 302 302 301 301 301 300 300 300 300 300 299 298 297 297 296 296 296 296 296 295 294 294 294 294 294 294 295 295 295 295 295 294 295 295 295 295 295 295 295 295 295 295 295 295 295 295 295 295 294 294 294 295 295 295 295 294 294 295 296 296 297 299 300 303 309 314 317 319 320 321 323 325 327 326 323 323
313 312 313 313 312 312 312 312 312 313 312 311 313 312 308 307 311 311 305 302 302 302 301 301 301 301 300 300 300 300 300 299 297 296 296 295 295 295 295 295 294 294 294 294 294 294 294 294 294 294 294 294 294 294 294 294 294 294 294 294 294 294 294 294 294 294 295 295 294 294 294 294 294 294 295 295 294 294 294 295 295 296 296 297 299 303 308 313 317 319 320 321 323 325 327 326 324
312 312 314 315 314 315 313 311 312 312 312 310 310 311 309 309 310 310 305 302 302 302 302 301 301 300 299 300 299 299 299 297 295 294 294 294 294 294 294 294 294 294 294 293 293 293 293 293 294 294 294 294 294 294 294 294 294 294 294 294 294 294 294 294 294 294 294 294 294 294 294 293 293 293 294 294 294 294 294 294 295 295 296 296 297 298 301 307 313 317 320 321 322 325 328 328 326
313 311 312 316 318 319 314 310 312 311 312 311 310 314 314 311 309 308 305 303 302 302 301 301 300 300 299 299 299 299 298 296 294 294 293 293 293 294 293 293 293 293 293 293 293 293 293 293 293 294 294 294 294 294 294 294 294 294 294 294 294 294 295 294 294 294 294 294 294 293 293 293 293 293 293 293 294 294 294 294 294 295 295 296 296 297 298 301 306 313 318 320 321 323 326 328 327
314 310 315 318 316 324 319 309 311 312 312 312 311 314 315 312 308 306 304 303 302 301 301 300 300 299 299 299 299 298 297 295 294 293 294 294 294 294 294 293 293 293 293 293 293 293 293 293 293 293 294 294 295 295 295 294 294 294 294 294 294 294 294 294 294 294 294 294 294 293 293 293 292 293 293 293 293 294 295 295 294 294 295 295 296 296 297 298 300 306 312 318 320 321 323 326 327
319 312 322 325 315 325 323 308 310 313 312 311 311 315 315 312 308 304 303 302 302 301 300 300 299 299 299 298 298 298 296 295 294 294 294 294 294 294 294 293 293 292 292 292 292 293 293 293 293 294 294 295 295 295 294 294 294 294 294 294 293 293 293 294 294 294 294 294 294 293 293 292 292 292 292 293 293 294 294 295 295 295 295 295 296 296 296 297 297 299 305 312 317 319 320 324 327
328 317 319 326 318 317 317 308 309 311 311 311 311 315 316 313 307 303 303 302 302 301 300 300 299 299 299 298 298 297 296 295 294 294 294 294 293 293 293 293 293 292 292 292 292 292 292 292 293 294 294 294 294 294 294 294 293 293 293 293 293 293 293 293 293 293 293 293 293 293 292 292 292 292 292 292 293 293 294 294 295 295 295 295 296 296 296 296 296 297 300 305 311 315 318 321 326
329 322 318 321 318 312 312 312 310 308 311 313 311 312 313 312 306 303 303 302 302 301 299 299 299 299 299 298 298 297 296 295 294 294 294 294 293 293 293 293 292 292 292 292 292 292 292 292 293 293 294 293 293 293 293 293 293 293 292 292 293 293 293 293 293 292 292 292 292 292 292 291 291 291 291 292 292 293 293 294 294 294 295 295 296 296 296 296 296 295 297 300 304 308 313 316 321
318 319 317 316 315 311 311 312 310 310 312 312 312 312 311 311 306 303 303 302 301 301 300 300 299 299 299 298 298 297 296 295 295 294 294 294 293 293 293 292 292 292 292 292 292 292 291 292 292 293 293 293 293 293 293 292 292 292 292 292 292 292 292 292 292 292 292 292 292 292 292 292 292 291 291 291 292 292 293 293 294 294 295 295 296 296 297 296 296 295 296 298 300 303 309 312 315
314 315 315 314 313 311 309 309 309 310 312 312 311 311 311 311 309 304 302 302 301 300 300 299 299 299 298 298 298 297 295 295 295 294 294 294 293 293 292 292 292 292 292 292 292 291 291 292 292 292 292 292 292 292 292 292 292 292 292 292 292 291 292 292 292 292 293 293 293 293 292 292 292 291 291 290 290 291 292 293 293 294 294 295 296 296 297 296 296 296 295 296 298 301 307 310 310
312 312 313 312 312 311 308 310 310 308 311 313 312 311 311 311 310 305 302 301 299 299 299 298 298 298 298 298 298 297 295 295 295 294 294 294 293 293 292 292 292 292 292 291 291 291 291 291 291 291 291 291 292 292 292 292 291 291 291 291 291 291 291 292 292 292 293 293 293 292 292 291 291 291 291 290 290 289 290 291 291 292 293 294 295 296 296 296 297 296 296 296 297 299 304 308 309
310 311 313 312 311 311 308 309 310 307 309 314 312 311 310 309 309 305 302 300 299 299 298 298 298 298 298 298 297 296 295 294 294 294 294 294 293 293 293 293 292 292 291 291 291 290 290 291 291 291 291 291 291 291 291 291 291 291 290 290 290 291 291 291 292 292 292 292 292 291 291 291 291 290 290 289 289 289 288 289 290 291 293 294 295 295 296 297 297 297 296 296 296 298 301 303 306
311 311 312 312 312 312 311 310 309 307 309 313 313 310 309 309 308 305 301 300 300 300 300 299 298 298 298 298 297 296 295 294 294 294 294 293 293 293 293 292 292 291 291 290 290 290 290 290 290 290 290 290 290 290 291 290 290 290 290 290 290 291 291 291 292 292 292 292 292 291 291 291 291 290 289 288 288 288 288 288 288 290 292 294 295 295 296 296 297 297 297 296 296 298 300 300 303
312 311 311 314 312 312 314 312 311 311 309 311 311 308 307 307 308 307 303 301 301 301 300 300 299 298 298 298 297 296 295 295 294 294 293 293 293 293 292 292 291 290 290 290 290 290 290 290 290 290 290 290 290 290 290 290 290 290 290 290 290 291 291 292 292 292 291 291 291 291 291 290 289 289 289 287 287 288 288 288 288 289 291 293 294 294 295 296 297 297 297 296 296 297 299 300 301
319 317 312 313 313 312 312 312 311 311 312 312 309 308 309 308 307 308 303 300 301 300 299 299 298 298 299 298 297 296 295 295 294 294 293 293 293 293 292 292 291 290 290 290 290 290 290 290 290 290 290 290 290 290 290 290 290 290 290 290 291 291 291 292 292 292 291 291 291 290 290 289 288 288 288 288 287 287 288 288 287 288 289 292 294 294 295 296 296 296 296 296 296 297 300 301 300
322 321 315 313 313 312 312 312 310 311 314 312 308 310 313 310 307 307 303 300 300 298 297 298 298 298 298 298 297 295 295 295 294 294 293 293 293 293 292 291 290 290 290 290 290 290 290 289 290 290 289 289 289 289 289 289 289 290 290 290 290 291 291 291 290 290 290 290 290 290 290 290 288 288 288 287 286 287 287 287 287 287 289 291 293 294 295 295 295 295 296 297 296 298 301 301 300
316 317 316 315 312 311 312 310 310 313 314 309 306 310 311 308 308 309 305 302 301 299 297 297 297 297 298 298 296 295 295 294 294 293 293 293 293 292 292 290 290 290 290 290 289 289 289 289 289 289 289 289 289 289 289 289 289 289 289 289 289 290 290 291 290 289 289 289 290 290 290 290 288 287 288 287 285 285 286 287 287 289 290 292 293 294 294 294 294 294 296 297 296 298 301 301 300
318 315 314 313 310 311 311 308 309 312 310 307 306 307 307 306 308 308 305 303 301 299 298 297 296 297 297 297 296 295 295 294 294 293 293 293 292 292 291 290 290 290 290 290 289 289 289 289 289 289 289 289 289 289 289 289 289 289 289 289 289 289 289 289 290 290 289 289 289 289 289 289 288 286 286 285 285 285 286 287 287 288 290 292 294 294 295 294 294 295 297 297 296 298 300 300 300
318 312 308 308 307 308 308 307 309 308 305 307 307 306 307 308 309 305 302 303 302 299 298 297 296 296 296 296 295 295 294 294 293 293 293 293 292 291 290 290 290 290 289 289 289 289 289 289 289 289 289 289 288 289 289 289 289 289 289 289 289 290 289 289 289 289 289 288 288 289 289 288 287 286 285 285 285 285 286 287 287 287 288 290 293 294 295 295 295 296 296 296 296 297 297 298 298
310 308 308 309 309 307 306 306 307 307 306 307 308 306 308 312 313 306 301 302 303 301 299 297 296 296 296 295 295 294 294 293 293 293 293 292 291 291 290 290 290 289 289 289 289 289 289 289 289 289 289 288 288 288 288 289 289 288 288 288 289 289 289 289 288 288 288 288 288 289 288 287 286 285 285 285 285 285 285 286 286 286 287 289 291 293 294 296 296 296 296 296 297 297 296 296 296
305 309 312 313 313 309 309 309 307 308 310 310 309 308 307 311 312 307 305 306 304 302 300 298 296 295 295 295 295 294 293 293 293 293 292 291 291 290 290 289 289 289 289 289 289 289 289 289 288 289 288 288 288 288 288 288 288 288 288 288 288 289 289 288 288 288 287 287 287 288 288 287 285 284 284 285 284 283 283 283 285 286 287 288 290 291 293 295 296 297 297 297 297 297 297 296 296
307 315 313 313 315 313 313 312 309 310 316 314 308 306 306 309 310 307 305 305 303 304 302 299 297 295 294 295 294 294 293 293 293 292 292 291 291 290 289 289 289 289 289 289 289 288 289 289 288 289 289 288 288 288 288 288 288 288 288 287 288 288 287 287 287 287 287 286 287 287 286 286 285 284 284 284 283 281 279 281 283 284 285 287 288 289 291 293 295 296 296 296 297 297 297 297 295
311 314 311 312 317 318 317 315 313 314 317 311 303 303 305 307 309 308 306 304 302 302 300 299 298 295 294 294 294 293 293 293 292 292 291 291 290 290 289 289 289 289 289 288 289 288 289 289 288 288 288 288 288 288 288 288 288 288 287 287 287 287 287 286 286 286 286 286 286 286 285 284 284 284 283 282 281 279 278 279 281 283 284 285 286 287 289 292 293 295 296 295 296 297 297 296 295
309 311 312 315 317 317 318 317 317 318 318 309 300 302 306 307 307 305 304 302 300 300 299 298 298 295 294 294 293 293 292 292 292 291 291 291 290 289 289 289 289 288 288 288 288 288 288 289 288 288 288 288 288 288 288 288 288 288 287 287 286 286 286 286 286 286 286 286 285 285 284 283 283 283 282 282 280 278 278 278 279 281 282 283 285 286 288 290 293 294 295 295 295 297 296 295 295
307 311 314 315 316 317 317 318 319 318 316 310 302 303 310 310 306 300 297 295 295 298 298 297 296 295 294 293 293 293 292 292 292 291 291 290 290 289 289 289 288 288 288 288 288 288 288 288 288 288 288 288 288 288 288 288 288 287 287 286 286 286 286 285 286 286 285 285 285 284 284 282 282 282 282 281 280 278 277 277 278 280 281 282 284 285 286 289 292 293 295 295 295 296 296 295 294
308 308 310 312 315 316 315 314 315 312 309 307 305 306 309 307 301 296 293 292 292 294 294 294 294 293 293 293 292 292 292 292 291 291 291 290 289 289 289 288 288 288 288 288 288 288 288 288 288 288 288 288 288 288 288 287 287 287 286 286 285 285 285 285 285 285 285 284 284 283 282 282 281 281 281 280 279 277 277 277 278 279 280 281 282 283 285 288 291 292 294 295 295 295 295 295 294
309 306 309 312 311 310 309 310 310 307 308 309 307 308 308 307 302 296 294 294 293 292 292 292 292 292 292 292 292 292 292 291 291 291 291 290 289 289 289 289 288 288 289 288 288 288 288 288 287 288 288 288 288 287 287 287 287 287 286 285 285 285 285 285 284 284 284 284 284 283 282 281 281 280 280 279 277 276 276 276 277 278 278 279 281 283 284 287 289 291 293 295 295 295 295 295 294
310 309 310 309 307 305 305 309 309 307 308 310 309 308 308 310 306 297 293 294 293 292 292 291 290 291 291 291 292 292 291 291 291 291 290 290 289 289 288 288 289 289 289 288 288 288 288 288 287 287 288 287 288 287 287 287 286 286 286 285 285 285 285 284 284 284 284 283 283 283 281 280 280 279 278 277 276 275 275 275 276 277 277 278 281 282 284 286 289 291 293 294 295 294 294 295 295
306 307 306 307 309 308 307 308 309 310 310 312 311 310 309 310 308 301 296 295 293 292 292 292 291 290 290 291 292 291 291 291 291 290 290 289 289 289 289 289 289 289 288 288 288 288 288 288 287 287 287 287 287 287 286 286 285 285 285 285 284 284 284 284 284 284 283 282 282 282 281 280 279 278 277 276 276 275 275 274 275 276 277 278 280 282 283 286 288 290 292 293 294 294 294 294 295
299 301 302 304 307 308 308 307 308 311 312 313 313 312 312 310 309 307 302 295 294 292 291 292 292 290 290 291 291 291 291 291 290 290 290 289 289 289 289 289 289 289 288 288 288 288 287 287 287 287 287 287 287 286 286 286 285 285 285 284 284 283 283 283 283 283 282 281 281 280 280 279 279 278 277 276 275 275 274 274 275 275 276 277 278 281 283 285 287 289 290 291 293 294 294 294 294
301 301 303 302 302 306 307 305 305 308 310 311 311 312 314 309 305 308 305 297 294 293 292 292 292 290 291 291 291 291 291 291 291 290 290 290 290 289 289 289 289 288 288 288 287 287 287 287 287 287 287 287 286 286 285 285 285 285 284 284 283 283 283 283 283 282 281 280 280 280 279 278 278 277 276 275 274 274 274 274 274 274 275 276 277 279 283 284 286 288 289 290 292 293 294 294 294
305 304 305 303 303 306 307 306 306 306 307 310 310 311 313 306 302 305 304 298 295 293 292 293 291 290 291 292 292 292 291 291 291 290 290 290 290 289 289 289 288 288 288 288 287 287 287 287 287 287 286 286 286 286 285 285 284 284 284 283 283 283 283 282 282 282 281 280 279 279 278 277 277 276 275 274 273 273 273 273 274 274 275 275 276 279 282 283 284 286 288 289 291 292 293 294 294
Wind_Speed
4 2 1 2 3 3 2 2 2 3 3 3 2 2 1 1 2 3 2 0 1 1 3 5 7 13 17 15 17 19 17 8 3 6 3 5 6 10 13 11 10 9 10 9 8 9 11 13 14 13 12 10 8 6 6 7 8 8 7 7 8 9 10 10 11 12 11 11 11 11 12 11 10 10 10 10 10 10 11 12 12 11 9 9 10 11 13 14 15 15 17 18 18 17 17 16 15
4 2 2 1 1 2 1 1 2 3 5 3 1 2 1 3 3 5 4 3 3 3 6 8 15 24 27 23 22 23 21 17 11 12 12 10 10 11 14 11 9 9 9 8 7 7 8 9 10 9 9 8 7 5 5 7 8 8 8 9 9 9 10 10 12 14 13 13 13 12 13 13 13 12 11 11 11 11 13 13 14 14 13 11 10 10 12 14 15 16 16 18 19 19 18 18 16
5 2 2 1 1 3 2 2 2 2 4 3 2 2 0 1 4 6 7 6 7 8 9 10 16 15 17 17 17 15 11 16 15 10 13 15 13 14 13 12 9 7 7 7 8 7 7 8 9 7 6 5 5 4 3 5 7 8 9 9 11 11 11 12 13 14 14 14 14 14 14 14 14 14 13 12 12 13 14 14 14 15 16 15 13 13 13 14 14 15 16 16 18 19 19 19 17
3 3 2 1 1 2 2 3 2 4 4 3 2 4 2 4 6 7 5 7 8 9 10 11 13 12 17 13 8 10 7 12 15 10 11 15 13 12 10 11 8 5 5 6 7 7 7 7 7 7 5 3 3 3 3 3 4 6 9 9 10 11 13 14 14 15 14 14 15 16 15 14 14 14 13 14 15 14 15 15 15 15 17 16 15 15 15 15 15 15 15 15 16 17 18 18 17
2 2 4 1 1 0 2 3 2 4 4 4 2 4 4 6 7 6 4 7 9 10 12 14 8 13 23 17 8 6 8 7 12 12 10 12 9 9 9 8 6 4 4 5 6 6 6 6 5 5 4 3 3 4 5 5 5 5 7 8 9 10 12 13 15 16 16 16 16 17 17 15 14 15 15 16 17 16 16 16 16 17 18 17 17 17 16 16 16 15 15 15 15 15 17 18 17
2 2 3 3 2 1 3 3 3 2 3 5 3 4 6 6 7 7 6 8 11 13 14 16 13 16 19 19 20 15 12 8 9 14 12 11 9 8 8 7 6 4 4 4 5 5 5 6 6 6 5 4 4 5 5 6 6 7 7 7 9 11 11 13 14 15 16 18 18 18 18 17 16 17 17 18 18 18 17 17 17 18 18 18 19 19 18 17 17 17 17 17 16 16 17 18 18
2 2 3 3 2 3 4 4 4 2 1 5 5 5 6 5 10 11 6 5 10 15 17 21 24 22 11 8 16 19 18 14 14 15 11 9 7 7 8 8 7 5 5 4 4 4 4 4 5 6 6 6 5 5 5 6 7 8 8 8 8 10 11 13 14 15 15 16 18 19 18 18 19 19 19 19 20 20 19 19 19 19 19 20 21 20 19 18 18 19 19 18 18 18 18 20 19
4 2 2 3 2 4 4 3 3 3 0 1 3 5 4 4 10 9 3 3 5 10 18 23 24 17 8 10 13 15 19 17 16 11 7 6 6 8 7 8 8 8 7 6 5 5 5 5 5 6 7 7 7 7 6 6 7 8 9 9 9 10 10 12 14 16 16 17 18 20 20 19 19 20 21 21 20 21 21 21 20 21 22 22 21 21 20 20 19 20 20 20 20 20 20 21 20
4 3 2 3 2 3 3 3 1 2 1 2 2 3 2 7 8 6 4 4 7 12 15 16 15 12 10 19 17 13 17 15 11 7 6 7 7 7 7 8 10 9 9 8 8 8 9 9 10 10 10 10 10 10 9 9 8 9 9 10 10 11 11 12 14 15 16 18 19 21 22 21 21 21 21 23 21 21 22 22 22 23 24 23 23 22 22 21 20 21 22 22 21 21 22 22 22
4 4 2 3 3 4 3 1 1 1 2 3 2 1 3 8 10 9 8 6 9 15 14 14 16 18 14 15 13 13 16 12 9 8 8 7 7 6 7 9 9 10 10 12 13 12 13 14 15 15 15 15 14 14 13 12 11 11 11 12 12 13 13 14 15 15 15 17 18 20 22 22 23 23 22 23 24 24 23 23 24 24 25 25 25 24 23 22 21 22 23 24 23 22 23 24 24
2 4 2 3 4 3 2 2 2 2 3 3 3 4 4 7 10 9 9 8 9 15 14 13 15 21 18 11 11 12 11 9 9 9 8 6 6 6 7 7 8 9 11 13 14 13 15 15 16 17 18 18 18 18 17 16 15 13 12 12 13 15 15 16 17 17 18 18 18 19 21 22 24 25 24 24 24 24 24 25 25 24 25 25 26 25 24 23 23 24 25 26 25 25 24 24 25
2 2 3 4 3 2 2 5 5 3 4 4 2 3 5 7 9 5 8 8 7 11 10 8 14 18 13 6 10 11 9 9 9 8 6 5 7 7 6 6 7 9 11 12 12 13 14 14 15 17 18 19 20 20 20 19 19 18 16 14 13 13 15 17 18 19 20 20 20 20 21 22 23 24 25 25 25 25 26 27 27 26 26 26 26 26 26 25 26 26 27 28 27 27 26 25 25
2 1 4 3 2 3 4 5 4 1 4 2 1 2 5 6 7 6 10 11 9 8 9 10 18 12 9 6 9 10 9 8 6 4 5 7 7 6 6 7 9 10 11 11 12 13 14 15 16 17 18 19 20 21 21 21 21 20 19 18 17 15 14 15 16 18 20 21 23 23 23 24 25 25 25 25 26 27 27 27 27 28 29 28 27 28 29 28 28 27 28 29 28 28 28 27 26
3 1 4 2 1 2 4 4 1 2 1 2 1 1 5 6 7 9 13 11 12 7 7 13 17 9 10 8 8 9 9 6 2 3 6 7 5 5 7 8 10 11 12 12 13 15 15 17 17 18 19 21 21 22 23 23 22 21 21 20 20 19 18 17 15 16 17 20 22 24 25 26 27 28 27 26 25 26 28 28 26 28 31 31 30 30 30 30 29 28 28 30 29 28 28 28 28
3 2 4 3 3 2 2 3 2 5 2 2 1 5 9 10 8 10 11 8 7 4 7 11 11 7 8 8 6 9 8 4 1 3 4 4 4 6 8 9 10 11 13 14 15 16 17 18 18 19 20 22 23 23 23 23 23 22 22 21 21 21 20 20 19 17 17 17 19 21 23 24 26 28 29 30 28 26 28 29 28 30 33 33 31 29 29 30 29 29 29 30 30 29 29 29 29
3 2 4 3 2 2 2 2 2 4 1 2 2 7 11 12 9 11 7 10 11 7 8 8 8 8 11 13 12 10 7 4 2 1 2 1 3 6 7 9 10 11 13 14 15 16 17 18 19 20 21 21 22 23 23 24 24 23 22 22 22 21 21 21 21 20 19 18 17 18 20 22 23 25 27 29 30 30 28 28 30 31 32 34 32 28 27 28 28 28 29 30 30 31 31 31 31
3 2 5 3 1 1 1 2 2 3 2 2 1 4 7 10 13 16 12 15 18 16 14 15 14 16 17 17 14 10 8 5 2 3 3 0 3 4 6 9 10 11 13 14 16 17 17 18 19 20 21 22 23 25 26 27 27 26 25 24 23 22 22 22 22 21 21 20 19 18 18 20 22 24 25 26 28 28 28 27 30 29 28 31 33 30 26 26 28 29 29 29 30 32 33 33 33
4 2 4 2 1 1 2 5 5 5 3 1 2 4 7 9 12 16 13 15 22 22 21 21 19 18 18 16 13 9 6 4 3 2 1 3 5 7 9 11 12 13 14 15 16 16 17 19 20 21 22 25 27 30 31 32 31 29 29 27 25 24 23 23 23 23 22 22 22 21 19 19 20 22 23 24 25 26 27 26 28 28 26 27 30 32 29 28 31 31 30 30 30 31 33 34 35
4 3 3 1 3 2 2 6 6 5 6 4 3 5 5 7 11 12 6 9 18 18 16 19 21 19 16 14 10 7 4 3 1 2 4 7 9 11 12 13 14 15 16 16 17 18 19 20 21 23 26 28 30 33 34 33 33 32 31 30 28 27 25 25 24 24 24 23 22 22 22 21 20 21 22 23 24 26 27 27 27 27 26 27 29 31 31 31 33 33 32 31 31 32 33 34 36
2 3 2 4 5 2 2 7 8 7 9 8 5 5 2 5 9 11 11 9 8 11 13 14 18 18 15 12 9 6 4 3 4 5 7 9 12 13 14 15 16 17 18 18 19 20 21 23 26 28 29 31 32 32 32 32 32 32 32 31 30 30 29 28 26 25 24 23 23 23 23 24 23 22 22 23 24 26 27 28 28 27 27 27 29 31 33 33 33 35 35 34 34 35 34 35 36
1 2 2 5 4 2 3 8 9 7 9 9 8 5 4 6 7 16 21 11 0 10 17 14 17 20 16 13 10 7 7 6 6 6 7 9 11 12 13 15 16 17 18 19 20 22 24 27 29 30 31 31 31 31 31 31 31 31 31 31 31 31 31 31 30 29 27 25 24 24 25 25 25 25 24 24 24 25 26 27 28 29 29 28 29 31 34 35 34 36 37 37 38 38 36 35 37
2 2 5 5 4 3 4 8 8 7 9 9 8 5 5 5 7 17 19 7 6 15 16 14 17 19 16 14 12 10 8 7 7 6 8 8 9 10 11 12 14 16 17 20 22 24 26 28 30 30 30 30 30 30 30 30 31 31 31 31 31 31 32 32 31 31 30 29 27 26 26 26 27 28 28 27 26 27 27 27 27 28 29 30 30 31 33 35 35 37 39 40 40 39 38 37 38
1 3 4 3 3 4 5 7 6 7 8 7 6 4 6 7 6 8 10 6 13 18 16 16 17 17 15 14 12 10 8 7 7 8 9 9 10 11 12 12 14 16 19 21 23 24 25 27 29 29 28 29 29 30 30 30 30 30 30 30 30 31 31 32 32 32 32 32 31 30 28 28 28 30 31 31 29 29 29 29 28 28 29 30 30 32 34 34 35 37 39 41 41 40 40 39 39
2 3 4 2 2 2 3 4 6 6 7 6 4 5 7 9 6 5 9 12 19 20 18 18 17 17 15 13 12 9 8 7 7 9 9 10 12 12 14 15 16 17 19 20 20 21 23 25 25 26 27 28 29 30 30 30 30 30 30 29 29 30 30 31 32 33 33 33 33 33 32 30 28 29 31 32 33 32 31 31 30 30 30 29 30 31 33 35 36 37 38 40 41 42 41 40 39
3 4 4 2 3 1 1 2 5 6 8 6 4 7 10 12 10 8 14 19 21 22 20 19 18 17 15 13 12 9 8 8 8 9 9 11 12 13 15 16 16 17 18 18 18 19 21 22 23 24 26 27 29 29 30 30 30 30 30 29 29 29 30 31 32 33 33 34 34 34 34 33 31 30 30 31 33 35 34 33 32 33 32 31 30 31 30 32 36 37 38 40 42 43 43 41 40
2 4 4 3 5 6 7 4 4 6 9 7 3 2 7 13 10 7 16 22 22 22 20 19 18 17 14 12 11 9 8 7 7 7 9 10 11 12 13 15 16 16 17 18 18 19 20 21 23 24 26 27 28 29 29 29 30 30 30 30 29 29 30 30 31 32 34 35 35 35 34 35 35 34 33 32 32 34 35 35 35 34 34 33 32 32 31 31 33 34 36 39 44 46 45 43 41
4 4 6 7 10 11 9 7 5 8 9 8 5 2 8 15 7 3 17 24 23 23 21 19 17 15 14 12 10 8 6 5 6 6 8 9 11 11 12 14 15 16 17 18 19 19 20 21 22 24 25 26 27 28 28 29 30 31 31 31 31 31 31 30 30 30 32 34 35 36 36 36 36 36 35 34 33 33 33 34 35 35 35 34 34 34 33 32 33 33 34 38 43 47 47 45 43
6 6 8 10 11 12 9 7 8 8 6 6 7 2 5 10 3 7 22 27 24 24 21 19 16 14 14 11 10 8 5 5 5 6 8 9 10 12 12 14 15 16 18 19 19 19 20 21 22 23 24 25 26 27 28 29 31 32 32 32 33 34 35 35 33 32 32 33 34 36 37 37 37 37 38 37 35 34 33 33 33 34 35 35 35 35 35 33 33 33 34 35 40 47 50 49 45
7 4 5 8 9 9 7 5 9 9 5 8 9 3 1 7 7 8 23 29 25 23 21 19 17 15 14 12 10 8 6 5 5 7 8 10 10 11 12 13 14 16 18 18 18 18 19 20 21 23 23 25 26 27 29 30 31 32 33 33 34 35 36 38 38 38 36 35 35 36 37 38 38 38 39 39 37 35 34 34 34 34 33 34 35 36 36 35 34 34 33 33 35 45 53 53 49
5 2 1 4 7 6 4 2 7 8 6 10 9 1 5 10 11 9 24 31 27 24 23 21 19 17 16 14 12 9 8 7 7 7 8 9 10 11 12 14 15 17 18 18 18 19 19 20 21 23 24 26 27 28 30 31 32 33 33 34 34 34 35 37 39 40 40 39 39 38 38 39 39 39 40 40 39 37 36 35 36 36 34 33 34 35 37 37 36 35 34 33 33 40 49 54 52
1 1 2 2 3 5 6 2 8 5 4 11 8 4 7 8 12 15 26 32 28 26 24 23 22 19 18 16 14 11 10 9 6 6 6 8 9 11 13 15 16 18 18 18 19 19 19 21 22 24 26 27 29 30 31 31 32 33 33 34 35 36 37 38 39 40 40 40 41 41 41 41 42 42 41 41 41 40 39 39 38 38 36 35 34 34 35 36 36 36 35 34 33 34 43 52 55
2 2 3 3 1 5 9 3 9 6 4 9 7 4 6 6 11 20 28 30 28 26 25 25 24 22 20 18 16 13 12 11 7 4 2 6 8 10 12 15 16 17 17 18 19 20 21 22 24 26 28 30 30 30 30 31 31 32 33 34 35 37 38 39 40 41 41 41 42 43 44 44 44 44 43 42 42 42 42 42 41 39 38 37 36 35 35 35 36 37 36 35 34 33 38 50 57
3 1 3 4 3 3 7 4 6 7 3 5 6 5 5 5 10 22 28 29 28 25 25 26 26 25 23 20 18 15 13 13 10 6 2 4 7 9 12 15 16 17 18 19 21 22 24 25 26 29 31 31 30 30 30 30 31 33 34 35 36 37 38 40 42 43 44 44 44 45 45 45 45 45 44 43 43 43 42 43 43 41 40 39 39 38 36 36 35 36 37 37 37 35 35 42 52
4 2 2 4 4 3 4 6 5 4 4 5 5 6 8 5 10 23 28 29 28 26 27 29 28 26 24 21 20 17 15 15 12 8 5 4 7 10 13 16 17 18 20 21 23 24 25 27 28 30 30 29 29 30 30 31 32 34 35 36 37 38 39 41 43 45 45 46 45 45 45 45 45 45 44 43 43 43 43 44 44 42 40 40 41 41 39 38 36 35 37 38 39 39 37 35 43
4 4 3 4 4 4 5 5 4 2 3 6 4 6 11 7 8 21 28 30 29 27 28 30 29 27 25 23 21 18 16 16 14 10 6 4 7 10 12 16 19 20 22 24 25 25 26 28 29 29 29 29 29 30 31 32 34 35 37 38 39 40 42 42 43 44 45 45 45 44 43 43 44 44 43 42 41 42 43 43 43 42 41 41 41 41 41 40 38 36 36 38 40 41 42 36 36
6 5 4 4 5 7 7 6 6 3 4 8 8 9 12 9 7 16 25 29 28 26 26 27 28 27 26 25 22 19 17 16 14 10 7 6 7 10 12 16 19 21 23 25 25 26 28 29 30 29 29 29 30 31 32 34 36 38 40 41 42 43 44 44 44 44 45 45 45 45 45 44 45 45 43 41 41 41 42 42 42 42 41 41 41 41 41 41 40 40 38 38 40 41 45 43 34
4 2 4 6 5 8 8 6 6 3 3 8 9 9 12 10 8 13 24 26 22 21 22 25 27 28 29 27 23 21 18 16 13 10 9 6 7 9 12 16 20 22 23 23 24 27 29 29 30 29 29 30 30 32 33 35 37 40 42 42 44 45 46 46 46 46 46 47 47 48 48 48 47 47 46 44 42 41 42 43 43 43 42 42 43 42 41 42 41 42 40 37 39 39 43 47 37
3 2 4 6 5 8 9 6 5 1 3 7 6 6 10 11 9 12 19 19 18 24 26 27 30 30 31 28 24 22 19 16 12 9 9 6 6 9 13 17 20 21 21 23 25 27 28 28 29 29 29 29 30 31 32 34 36 39 41 42 44 46 47 47 48 48 48 49 49 49 50 51 51 50 49 47 45 42 39 40 42 42 43 43 43 43 41 42 41 41 42 39 37 38 42 47 41
2 2 1 5 4 5 8 6 3 0 1 6 6 6 8 10 10 11 17 19 24 34 36 34 35 34 32 30 25 24 21 18 13 9 8 5 6 9 13 16 18 18 19 22 24 26 26 27 27 27 28 29 30 31 32 34 36 37 39 41 44 46 47 48 49 49 49 50 51 51 51 52 53 53 51 49 48 47 42 39 40 40 42 43 43 43 42 42 42 40 40 40 37 37 41 46 44
3 3 1 5 4 2 5 5 4 3 3 5 8 8 7 8 12 12 17 25 26 32 34 32 34 35 34 31 27 26 24 20 14 9 7 5 6 9 12 14 16 17 19 22 24 25 26 26 27 27 29 30 30 32 33 35 36 37 39 40 42 44 46 47 48 49 50 52 53 53 53 52 52 52 50 50 51 51 47 41 40 39 39 41 42 43 43 42 42 40 39 38 36 38 41 45 47
4 5 5 7 7 6 7 4 5 5 4 5 8 10 6 7 14 12 7 15 18 21 25 25 29 32 31 29 27 26 23 20 14 9 7 5 6 8 11 13 15 17 18 21 23 25 25 26 27 28 29 30 31 33 34 36 37 39 40 41 43 44 46 47 48 51 52 54 55 55 55 54 53 52 49 48 48 48 45 40 38 38 37 39 42 43 43 43 42 41 40 38 35 36 40 44 47
4 5 9 10 10 9 8 5 5 5 5 4 4 5 6 3 9 10 1 5 10 13 17 22 27 28 29 30 28 25 21 18 13 9 8 6 7 8 11 12 14 16 17 20 22 23 25 26 27 28 30 31 32 33 35 36 38 40 41 43 46 47 49 49 50 53 54 56 58 58 59 57 55 54 50 46 43 39 36 33 33 34 34 36 41 43 44 44 44 42 39 37 35 34 36 40 45
3 5 6 7 7 6 7 4 3 2 4 4 3 1 8 2 4 8 4 6 10 9 11 18 24 27 30 32 28 25 22 17 13 10 9 7 7 9 10 11 13 15 17 20 21 23 25 26 27 28 30 32 33 34 35 37 38 39 40 42 43 45 48 50 51 53 54 56 58 60 61 59 55 54 51 44 40 36 30 28 28 29 32 36 40 42 44 44 43 41 38 35 34 34 33 36 42
3 4 3 3 3 5 4 1 2 4 2 6 2 4 7 7 6 7 7 9 10 9 10 13 20 27 31 31 28 26 22 17 15 12 9 8 7 8 9 11 13 15 17 19 21 24 26 27 28 29 30 32 34 35 35 36 38 39 40 41 42 43 46 50 52 53 55 56 59 61 62 61 56 52 50 45 43 41 33 27 27 29 33 35 35 38 41 42 40 39 38 35 33 33 32 33 39
5 4 3 2 2 4 2 1 5 3 3 8 6 6 4 10 5 1 3 8 10 12 14 13 19 28 30 30 29 26 21 17 15 13 9 7 6 7 8 11 13 14 17 20 21 24 26 28 29 29 31 33 34 35 36 36 37 38 39 41 42 44 46 49 50 52 55 57 59 61 62 61 57 52 49 46 46 45 37 31 31 32 32 32 31 32 34 37 39 39 38 36 34 34 33 33 38
3 3 2 2 1 2 1 2 4 2 1 11 8 8 4 8 3 2 1 5 10 13 13 12 19 27 28 30 30 25 21 19 16 13 9 6 6 6 9 11 12 14 18 20 21 24 27 28 29 30 31 33 34 35 36 37 37 38 39 40 42 45 47 49 51 52 54 56 59 62 62 60 57 54 51 48 46 45 41 34 34 36 34 32 32 31 30 32 37 39 38 38 36 36 35 35 38
3 4 4 5 4 2 2 1 2 3 3 11 8 11 9 7 3 6 4 6 9 10 8 10 17 24 28 31 31 26 22 20 16 12 9 6 5 6 10 11 12 15 18 20 22 25 28 29 31 32 32 34 35 35 36 37 38 39 40 41 42 45 48 49 51 53 54 55 59 62 62 60 57 55 52 50 47 43 41 37 34 37 37 36 35 34 31 30 32 36 39 40 39 36 36 36 37
4 4 4 4 5 4 4 4 3 1 6 6 4 9 10 8 5 5 8 7 6 8 10 13 18 23 29 33 31 27 23 20 16 12 8 5 5 7 10 12 14 16 18 20 23 26 28 30 32 34 34 34 35 36 37 37 38 39 40 41 42 44 46 48 50 52 53 55 58 60 61 59 58 55 52 51 48 41 39 40 36 34 37 38 38 38 35 31 30 33 37 40 39 37 36 35 36
4 3 3 3 5 4 3 3 0 3 7 4 1 3 6 10 9 7 11 11 8 7 12 18 22 25 30 33 31 27 23 19 15 10 7 4 5 8 10 12 14 16 18 21 24 27 29 32 33 35 35 35 36 37 37 38 39 39 41 42 42 44 46 46 48 51 53 54 56 58 58 57 56 56 53 50 47 41 39 42 39 33 34 36 38 40 37 34 33 33 33 37 38 38 37 35 35
4 3 2 2 1 3 5 4 3 5 7 2 3 2 4 8 7 7 10 11 10 11 17 22 27 31 34 34 31 26 21 18 13 9 6 3 5 8 11 12 14 16 19 22 25 28 31 33 34 35 36 36 36 37 38 39 39 40 41 42 43 44 45 46 47 49 52 54 55 55 54 54 54 54 53 51 47 42 39 41 41 36 33 33 35 39 39 34 33 33 31 34 36 37 36 34 34
4 4 4 4 3 3 5 4 5 8 8 4 1 1 4 4 3 4 7 8 6 11 17 18 24 31 34 32 28 24 21 17 12 8 5 3 5 9 10 12 15 17 20 23 26 29 32 34 35 35 37 37 37 38 38 39 40 40 41 42 43 44 45 47 48 48 50 53 54 53 52 51 52 52 52 51 47 42 39 40 40 37 33 31 33 38 38 34 33 32 31 33 35 35 35 33 33
2 3 4 2 4 5 4 5 5 4 7 6 3 4 6 4 2 2 2 3 1 6 12 18 23 29 31 29 27 24 20 16 12 9 5 4 6 8 10 12 15 17 21 24 27 30 32 34 35 36 37 37 38 38 39 40 41 41 42 43 43 44 46 47 48 49 50 51 52 51 51 50 50 51 50 49 48 44 41 39 37 34 32 32 35 37 36 34 33 31 30 32 34 34 34 32 32
1 2 3 4 4 5 2 6 3 2 4 7 3 6 7 1 2 2 4 3 2 4 9 17 23 27 28 28 27 24 20 15 11 9 6 4 6 8 10 13 16 19 23 26 28 31 32 34 36 36 37 37 38 39 40 40 41 42 43 44 44 45 46 47 48 50 51 51 52 50 50 50 49 50 49 48 47 44 41 38 36 33 34 36 37 36 35 34 33 29 27 30 32 32 32 31 30
5 3 5 3 1 2 1 2 3 0 5 6 3 9 12 5 3 3 3 2 4 4 6 11 16 22 24 25 27 23 19 14 11 9 6 5 7 8 11 14 17 21 24 27 29 31 32 34 35 37 38 38 39 39 40 40 41 43 44 45 46 46 46 47 48 50 51 51 52 50 49 49 49 49 48 46 45 44 41 38 37 36 36 38 37 36 36 35 33 28 24 25 30 31 30 31 29
4 3 3 2 1 2 1 2 3 3 5 7 6 10 13 9 5 3 5 9 10 8 7 8 12 18 21 25 26 23 18 14 13 10 7 6 6 9 12 16 19 22 24 27 29 31 32 34 35 36 37 38 39 40 40 41 41 42 44 45 46 46 47 48 48 49 50 50 51 50 50 49 48 47 46 46 45 43 41 39 38 38 37 37 35 36 37 36 34 30 22 21 27 30 30 29 29
2 1 3 0 2 3 3 2 2 3 6 9 8 10 11 6 6 8 12 14 13 11 11 11 14 19 23 27 27 23 19 16 15 11 7 6 7 11 14 18 20 22 25 27 29 31 33 35 35 36 37 38 39 40 40 41 42 43 44 45 46 47 47 48 48 49 49 49 49 49 50 48 47 47 45 44 44 42 41 39 38 36 34 33 34 36 38 37 36 32 25 21 22 27 30 28 27
3 2 2 3 2 1 2 2 3 3 6 7 6 11 13 4 5 8 11 14 15 15 15 13 15 21 25 28 28 24 21 17 15 10 6 6 9 13 15 18 20 22 25 27 29 32 33 35 35 36 37 38 39 40 41 42 42 43 45 46 47 48 48 48 48 48 48 48 49 48 49 47 46 46 44 43 43 42 39 36 34 33 31 30 33 36 38 39 38 35 29 23 20 24 29 28 26
6 6 7 7 6 2 3 5 3 3 6 6 3 12 14 3 4 6 8 10 11 14 16 13 15 24 28 30 29 24 20 17 14 9 6 8 11 13 15 17 20 22 25 27 30 32 33 35 35 36 37 38 39 40 41 42 42 43 45 46 47 48 48 48 48 49 48 48 48 48 47 46 45 45 44 42 41 40 38 34 32 31 30 31 36 37 37 38 39 37 32 26 20 21 26 29 28
Wind_Direction
39 49 115 154 180 153 137 164 91 17 71 87 48 79 278 254 116 86 82 73 114 336 87 90 57 90 104 106 109 84 51 36 49 86 86 357 13 355 360 1 354 352 355 17 36 38 23 16 15 11 14 19 18 1 351 344 346 343 330 324 321 321 311 293 293 291 280 277 274 275 277 276 276 279 283 284 283 288 295 300 300 293 288 285 282 278 272 266 263 260 255 251 249 249 251 252 252
24 26 144 166 242 162 123 91 87 15 54 68 338 129 219 332 62 126 160 161 156 127 123 89 75 101 107 97 91 75 46 37 74 88 58 41 46 27 23 18 2 358 355 3 9 24 20 11 9 8 8 11 18 3 341 326 323 331 327 320 315 314 316 307 301 293 283 281 276 272 275 275 273 273 274 278 279 283 290 295 299 299 299 294 286 283 282 275 266 263 262 257 253 251 251 250 250
21 37 157 230 357 118 123 58 104 74 74 106 265 253 349 58 135 182 185 151 132 116 129 92 70 91 97 75 64 75 58 44 67 80 43 38 38 27 31 29 15 354 345 351 356 1 0 354 348 355 3 358 6 356 332 318 310 316 316 315 317 310 307 308 307 304 299 296 291 284 283 282 277 277 276 280 285 284 288 290 292 296 298 296 291 287 287 283 271 263 263 263 259 256 255 253 251
28 58 55 210 128 85 83 60 123 110 120 160 224 264 267 177 176 206 189 128 116 110 120 95 66 66 76 65 59 79 60 42 51 60 37 30 30 18 21 30 17 338 330 342 346 344 345 347 344 347 349 333 328 317 295 295 296 307 309 309 316 313 307 305 304 303 302 296 292 287 284 283 280 283 279 282 290 289 289 289 288 290 293 291 289 287 285 283 276 266 262 265 263 259 258 256 254
31 69 38 77 155 67 88 69 94 99 170 178 159 248 245 203 186 201 163 109 95 88 108 108 92 76 71 53 54 54 19 40 48 55 48 26 21 0 6 23 12 352 357 355 346 337 337 340 343 341 332 317 289 280 270 269 267 275 294 299 300 298 299 301 299 300 301 295 290 286 284 287 286 286 283 282 287 288 289 288 287 286 287 285 285 286 281 276 274 268 260 258 259 257 256 256 254
40 98 52 74 96 96 97 69 87 91 215 167 151 237 233 213 174 155 122 103 80 76 108 114 113 97 80 63 63 54 37 58 55 53 54 34 20 0 2 6 358 12 26 9 354 347 343 335 331 329 322 313 289 279 267 258 256 251 265 280 284 284 286 288 289 292 294 295 295 292 288 290 289 288 287 285 283 283 283 282 281 282 283 283 284 284 280 272 268 266 259 252 250 252 253 253 253
44 103 67 92 73 46 95 105 132 142 226 160 161 202 221 200 150 140 125 115 80 77 106 110 110 98 83 89 65 57 63 71 70 61 56 42 18 8 8 2 355 10 23 11 5 356 345 331 320 321 319 314 302 292 278 260 253 249 253 263 275 279 281 279 279 280 279 284 289 290 288 288 289 287 286 284 285 285 283 281 280 280 283 284 285 283 279 271 267 264 262 256 248 248 249 250 250
44 69 70 96 44 30 94 112 159 173 126 176 186 194 204 150 137 143 134 142 93 81 112 114 107 89 61 96 74 62 75 72 74 71 56 36 10 17 13 11 9 14 17 4 1 353 346 340 333 328 324 323 319 312 301 287 269 260 258 259 264 271 277 278 280 281 278 277 278 279 277 278 281 282 284 285 285 285 287 286 283 284 286 283 282 281 277 271 266 264 263 261 253 246 247 248 247
45 43 63 84 72 38 71 76 91 180 239 289 254 216 138 85 99 125 107 108 95 81 118 133 107 101 94 86 76 68 78 75 77 72 51 32 20 28 16 26 29 29 27 19 22 15 18 16 13 9 2 356 346 338 326 316 300 286 275 269 267 266 270 274 280 282 282 280 277 276 272 273 276 275 282 285 282 280 283 283 281 283 285 282 279 278 276 270 266 264 262 260 256 249 245 247 247
47 45 91 85 79 58 55 69 74 156 246 255 260 320 77 82 82 101 108 103 92 82 106 124 104 114 111 83 72 68 77 81 77 61 52 42 32 24 17 36 40 43 45 41 42 38 40 38 35 33 29 27 19 12 359 347 332 316 301 289 281 274 271 271 275 278 281 281 280 283 279 275 276 275 276 280 280 279 278 279 280 283 285 283 280 277 273 269 268 266 263 259 257 253 247 245 245
27 25 83 79 68 79 128 162 128 169 271 311 337 9 76 104 90 86 97 97 101 103 102 97 102 110 99 80 76 78 90 85 72 65 56 44 27 21 23 36 41 45 50 50 50 48 48 45 43 40 36 34 31 28 23 17 7 354 338 317 301 290 283 278 277 276 278 279 279 285 284 278 279 280 277 275 275 276 279 280 281 283 284 282 279 276 272 270 271 269 265 260 258 256 251 247 244
10 348 62 89 106 141 151 152 159 211 303 354 357 27 81 94 92 95 94 81 88 103 77 90 131 115 92 77 86 94 103 85 76 74 47 15 13 22 23 27 40 44 51 54 52 51 48 44 41 37 33 31 28 26 23 21 19 15 8 356 339 317 301 291 286 281 278 278 276 278 281 280 281 283 280 277 274 271 276 280 281 282 283 281 276 273 272 272 272 270 267 261 259 258 255 251 246
61 150 73 96 163 140 117 139 174 221 342 353 206 46 60 67 90 117 98 61 38 61 44 117 145 120 102 106 94 103 96 86 81 56 1 353 3 12 13 24 40 46 52 51 48 46 41 37 33 30 26 21 19 17 15 13 11 10 9 6 1 352 336 317 302 292 284 279 277 276 277 276 275 278 278 280 280 275 272 273 276 281 283 281 275 271 271 272 271 270 268 264 260 258 257 255 251
47 139 94 110 55 112 125 127 162 111 26 306 209 86 65 60 86 109 107 68 29 49 67 130 148 115 122 127 87 100 96 95 68 12 338 347 357 12 24 36 44 48 50 43 40 38 33 28 23 20 16 12 9 8 7 4 2 360 359 357 356 356 352 345 332 317 302 291 283 278 277 276 274 274 275 277 281 280 278 275 275 279 281 280 276 272 270 270 270 269 267 265 261 258 256 256 255
43 84 91 96 29 47 112 124 146 120 141 293 99 123 87 59 84 98 103 98 44 87 122 131 148 120 150 168 114 113 110 117 83 357 330 352 23 44 47 48 45 43 42 36 33 28 24 19 15 13 9 8 6 4 3 359 356 352 349 346 345 345 345 346 344 338 328 312 297 286 281 279 277 275 274 274 276 278 280 281 280 279 275 274 275 273 269 267 268 268 267 265 263 259 256 255 256
42 85 72 73 46 55 78 98 103 101 198 259 143 137 89 54 83 89 88 126 90 98 137 105 113 128 146 146 130 132 127 127 127 274 285 26 56 57 58 50 42 36 33 28 25 22 18 13 11 10 6 5 2 359 356 353 351 347 343 338 335 334 334 335 336 337 335 329 315 299 288 283 280 278 276 274 273 274 276 276 277 282 279 271 269 270 270 267 267 269 268 266 263 261 259 256 254
19 93 64 58 71 96 134 151 141 137 221 274 150 160 110 73 90 96 102 123 98 88 104 95 102 119 124 126 132 139 133 143 173 217 237 245 47 42 43 39 34 31 28 23 20 16 12 8 5 3 358 356 353 352 350 348 347 345 342 338 334 330 329 327 326 327 327 329 326 316 302 291 286 283 280 276 272 270 272 273 272 280 285 277 271 271 272 271 270 271 270 266 263 261 262 261 256
29 112 70 41 169 118 172 169 171 151 156 247 203 174 145 119 113 113 100 97 97 93 96 104 110 112 116 124 132 137 146 184 206 229 268 39 36 35 34 30 27 24 23 19 15 10 6 2 358 355 352 351 350 349 346 345 344 343 342 339 337 333 330 328 325 323 320 320 322 322 317 306 297 291 287 284 280 274 272 274 275 276 279 281 278 275 272 271 272 273 270 265 263 262 262 263 261
57 106 62 250 202 173 183 155 154 143 148 179 186 173 152 130 137 140 120 101 105 99 99 112 114 115 125 132 141 158 185 197 140 70 57 52 47 45 40 33 27 22 18 14 11 7 4 0 357 355 352 351 348 346 344 344 343 342 341 339 337 335 332 330 328 326 322 318 315 315 317 314 308 300 295 292 288 283 277 274 278 279 276 275 276 277 272 269 271 271 268 264 263 264 264 264 263
63 81 47 244 208 160 163 138 131 142 155 153 158 177 116 97 149 150 136 130 118 124 137 132 127 133 138 144 159 174 172 138 100 72 61 55 50 45 38 32 26 21 17 13 10 7 5 2 -0 358 355 352 348 346 344 344 344 343 342 340 338 336 333 331 329 327 325 323 317 311 310 311 311 306 299 296 294 290 285 279 277 279 279 273 274 275 271 269 270 269 267 265 264 265 265 263 263
7 116 178 228 191 136 150 132 121 132 147 145 151 157 93 86 142 151 138 120 179 173 165 161 153 151 149 151 157 159 149 127 106 84 69 60 51 43 36 30 24 20 15 11 9 7 6 4 2 -0 357 354 351 349 348 347 346 345 344 343 341 339 336 333 331 327 325 324 322 316 309 306 306 306 302 298 297 295 292 287 282 281 281 279 279 276 270 269 268 267 267 264 264 265 264 263 263
341 239 227 219 160 127 144 130 118 134 134 130 138 133 144 130 117 150 153 141 197 184 174 170 162 158 157 155 152 150 144 127 112 92 74 62 52 45 36 28 22 16 12 9 9 9 7 4 2 359 355 352 351 350 349 348 346 346 345 344 343 341 339 336 334 330 328 326 324 321 315 309 303 302 303 300 297 296 294 292 289 286 284 283 284 281 276 273 268 264 266 264 265 265 263 266 266
307 281 268 232 160 125 146 137 122 146 140 124 136 144 160 143 102 152 175 169 168 168 165 162 158 158 158 154 153 149 138 125 109 85 71 61 50 42 33 26 20 15 13 12 12 10 6 4 1 357 354 351 350 349 348 347 347 348 347 346 344 342 341 338 336 333 332 330 327 325 322 317 311 304 302 300 298 296 295 294 293 290 288 286 285 284 282 279 273 268 266 264 266 265 263 266 266
178 262 285 256 217 135 150 144 129 141 134 115 132 171 176 156 138 144 146 147 155 158 160 160 158 158 159 156 152 147 133 117 97 81 68 57 48 40 34 29 23 18 15 13 12 10 6 4 0 355 353 350 349 348 347 347 349 349 348 347 345 342 340 338 336 335 333 332 330 328 326 323 319 312 306 302 299 297 295 293 293 293 291 289 286 284 284 283 279 276 272 267 265 265 265 264 263
174 238 282 285 267 272 340 144 143 138 131 126 138 182 200 183 165 142 140 149 155 157 159 160 159 158 161 159 151 145 133 108 91 81 64 54 48 40 35 30 25 19 14 12 10 8 4 1 357 353 350 347 346 345 345 346 347 348 348 347 345 343 340 338 336 335 333 332 331 329 329 327 324 321 316 309 302 298 296 293 292 292 292 291 288 283 286 288 284 281 280 274 267 264 264 262 259
218 239 292 312 292 299 301 275 195 170 162 165 158 178 196 175 156 138 153 158 160 162 163 163 163 162 161 160 156 153 141 112 93 77 59 51 44 37 32 27 21 15 10 8 6 4 2 357 353 349 347 345 342 341 342 343 343 344 344 344 343 342 341 338 335 334 333 332 332 331 330 328 326 324 323 319 312 303 298 295 293 290 290 292 291 286 285 287 286 285 285 280 271 264 262 261 258
300 299 307 297 291 298 288 264 215 179 177 180 173 184 176 166 159 191 172 166 166 165 163 166 169 169 166 165 167 166 154 123 97 75 59 48 40 34 28 22 17 12 8 5 4 2 358 354 351 348 345 343 341 341 341 342 343 343 343 342 342 342 342 341 338 335 332 332 332 332 331 329 326 324 323 321 319 312 304 299 296 292 289 289 291 290 286 283 283 284 285 281 273 267 262 260 257
307 322 317 299 304 303 272 230 204 176 178 179 153 130 168 170 218 229 183 172 173 172 165 171 179 176 173 174 177 172 164 139 102 77 58 46 41 35 28 22 15 10 6 4 4 0 355 353 350 348 346 345 343 344 345 346 347 347 347 346 344 344 344 343 342 340 337 334 332 331 331 330 327 325 322 321 319 315 311 307 302 297 292 289 288 290 288 284 281 280 282 280 278 275 266 259 257
297 328 318 302 337 320 266 206 190 180 181 168 133 72 252 203 247 225 183 175 177 180 174 178 183 179 175 176 179 175 171 149 102 78 62 52 44 39 32 23 15 10 6 4 2 358 356 353 351 349 347 346 346 347 349 351 351 350 349 347 345 343 342 342 342 342 341 338 335 333 332 331 329 326 323 321 319 314 311 309 308 304 299 293 289 289 289 287 282 278 280 279 278 277 265 255 254
283 325 350 309 358 326 285 107 168 174 181 174 149 272 255 221 235 205 177 178 179 181 181 183 183 179 177 178 183 180 169 152 112 86 68 56 46 37 31 23 16 11 6 4 3 360 357 354 351 349 347 346 347 348 349 349 348 347 346 344 342 339 338 338 339 340 339 338 337 335 333 331 329 327 324 321 318 315 311 308 307 307 305 301 295 291 290 288 285 279 278 279 277 276 266 252 249
259 339 52 0 357 280 304 44 155 164 195 180 162 254 252 237 235 196 179 182 180 179 181 184 184 181 182 183 185 183 168 158 138 106 72 47 37 29 24 20 15 10 7 5 4 1 357 354 352 349 346 344 342 343 344 344 343 343 342 341 340 339 338 337 336 336 337 337 336 335 333 331 329 326 323 320 317 314 311 307 306 305 306 306 301 297 294 291 289 283 278 279 278 279 276 261 250
24 7 326 328 180 260 308 318 170 182 212 176 160 251 260 254 229 193 182 185 184 183 184 185 186 185 185 185 184 185 174 166 166 152 78 20 17 20 19 17 14 11 8 6 4 1 358 355 352 347 342 339 338 340 342 341 340 340 339 339 339 339 339 338 336 335 335 335 335 333 332 330 327 324 320 318 315 312 310 307 305 304 304 305 303 301 299 295 293 289 279 276 277 280 282 267 251
2 46 275 274 228 277 317 313 208 196 196 189 189 233 267 268 213 191 184 187 188 187 186 187 190 188 186 186 186 187 180 174 180 190 214 347 1 10 14 14 13 10 7 6 3 360 357 353 350 345 340 339 340 342 342 340 339 338 338 338 338 338 338 337 336 335 335 334 333 331 329 325 322 320 318 316 313 310 308 305 303 303 303 303 303 301 301 298 297 295 285 276 275 278 282 272 254
328 0 287 257 247 267 292 307 289 182 180 231 213 224 250 254 195 189 190 191 191 191 191 191 191 190 188 189 192 192 185 182 188 198 217 307 346 3 9 10 9 6 4 2 0 359 356 353 348 344 341 341 344 344 342 340 339 339 339 339 338 337 337 336 336 335 334 332 330 327 324 321 318 316 315 314 311 308 306 304 302 302 302 301 301 300 299 299 299 300 294 281 275 275 277 281 269
264 283 291 287 275 256 248 275 292 157 206 243 218 240 253 254 199 195 196 195 196 198 196 195 193 191 191 194 197 194 188 189 197 205 219 283 334 357 3 5 5 2 359 357 358 358 355 352 347 344 342 342 344 342 340 338 338 339 339 338 338 337 336 335 335 334 333 331 329 326 324 322 319 315 312 310 308 306 304 303 301 301 300 299 298 298 298 298 298 300 299 290 281 274 269 275 284
219 243 238 262 275 270 257 250 257 213 233 251 230 241 253 245 212 202 201 199 202 205 200 198 196 194 195 199 200 195 191 194 201 211 225 274 324 353 358 1 1 357 355 354 355 356 354 351 347 344 343 343 342 339 338 338 338 340 339 339 338 336 335 333 333 333 332 331 330 329 327 325 322 316 311 307 302 299 298 298 299 298 298 297 295 295 295 297 298 298 300 299 289 278 268 265 281
193 213 229 245 244 269 274 265 273 208 198 257 235 233 253 246 226 209 201 199 204 205 202 201 198 196 198 200 200 196 195 197 200 213 228 267 318 348 353 355 355 352 353 353 353 354 353 351 347 345 344 342 341 340 340 340 341 341 340 339 337 335 333 331 332 333 333 333 332 331 328 326 323 319 315 309 302 296 293 293 294 295 295 294 292 292 293 294 296 297 297 300 297 287 275 265 268
194 209 251 274 238 255 274 270 282 171 175 268 252 235 255 251 243 218 196 194 205 204 202 204 200 199 201 200 199 195 194 195 198 212 228 259 315 339 346 350 351 350 351 351 352 353 352 350 348 347 345 343 343 341 340 341 342 342 340 338 335 332 332 331 331 333 333 333 332 331 329 326 324 321 318 313 308 301 294 291 290 291 291 291 290 289 290 291 292 294 295 297 299 294 283 272 266
200 182 250 289 257 267 290 293 304 73 197 274 275 256 255 256 256 231 197 196 209 208 207 207 201 198 199 199 196 192 191 195 200 213 225 256 314 333 341 346 348 348 348 349 351 352 351 350 349 347 344 343 343 342 341 340 340 340 338 335 333 331 330 330 330 332 333 333 332 331 330 328 325 321 317 312 308 303 299 292 287 286 288 288 288 287 286 288 289 291 294 295 298 296 286 278 271
215 188 213 271 275 288 286 307 335 310 261 259 275 268 251 253 258 248 209 204 213 214 214 213 205 201 200 198 197 195 194 197 203 211 219 254 307 323 334 341 344 345 347 349 350 351 350 348 347 345 343 343 343 342 340 340 338 336 334 331 330 328 327 328 328 330 332 332 332 331 331 329 325 321 316 309 304 302 301 295 286 280 283 286 285 285 284 284 286 287 291 294 294 296 290 281 275
260 214 210 248 269 251 244 291 340 316 299 273 289 286 255 220 239 254 215 202 215 213 211 212 208 204 201 200 200 200 201 203 208 210 214 251 290 311 328 335 340 345 348 350 350 349 348 347 346 344 342 342 341 341 339 339 337 334 331 330 328 328 328 329 330 331 333 334 332 332 331 329 326 323 318 310 305 304 303 298 287 277 278 284 284 283 283 281 282 284 288 291 291 290 290 284 278
298 243 217 232 254 258 264 323 359 337 315 304 343 306 275 211 230 253 136 186 216 202 201 206 204 200 199 200 199 199 202 206 212 212 216 249 282 304 322 330 339 346 347 349 349 349 347 346 346 344 341 341 340 339 339 338 337 336 335 333 333 332 332 333 333 331 331 333 332 332 331 329 327 325 321 314 309 308 305 302 295 282 277 283 285 282 281 280 279 281 284 286 288 284 283 285 280
290 258 209 215 237 255 274 323 354 276 267 293 65 265 274 273 222 239 189 198 219 199 203 206 199 197 198 200 197 196 200 204 206 208 220 249 278 299 317 330 340 345 346 348 347 347 346 345 345 343 341 340 339 339 339 338 337 337 336 334 334 333 332 331 332 330 329 330 330 330 329 328 326 325 323 318 310 307 303 303 304 297 289 289 287 282 279 278 277 278 280 281 285 281 274 277 279
242 254 127 137 210 245 267 317 266 247 277 292 219 166 274 275 247 238 184 197 226 215 214 209 199 199 199 198 196 197 201 202 201 206 223 249 278 299 315 333 342 344 344 345 345 345 345 343 342 342 340 340 339 338 338 338 336 335 334 332 332 331 330 329 330 330 330 329 328 328 327 326 326 324 322 316 307 303 296 289 295 298 295 290 285 282 280 278 277 276 277 279 280 276 270 271 276
246 226 122 105 206 229 252 238 258 280 18 290 246 144 261 271 257 312 154 199 235 226 215 208 200 200 198 195 195 197 198 199 201 208 223 247 274 295 318 337 343 342 341 343 343 343 343 342 341 342 341 339 338 337 336 336 335 334 332 331 330 329 328 327 328 329 329 328 327 327 326 325 325 323 320 316 310 306 298 281 277 283 285 282 279 279 278 278 277 275 274 276 274 270 271 273 276
230 162 98 24 10 227 234 239 265 26 30 267 247 151 216 269 224 110 108 220 238 231 216 207 203 203 199 192 192 194 195 195 200 208 219 242 266 300 329 341 341 340 341 341 341 342 342 342 341 341 341 339 337 337 335 334 334 332 331 329 328 328 328 327 327 327 328 328 327 328 327 324 323 322 321 320 313 308 303 287 273 273 275 275 275 275 276 277 274 271 271 272 269 266 268 275 277
119 72 27 359 348 358 37 43 73 58 262 258 232 176 193 271 243 165 189 218 220 216 200 195 204 206 200 193 192 192 192 192 196 205 217 239 274 321 338 341 342 341 340 339 340 343 342 341 341 339 339 338 335 335 333 332 332 330 329 327 326 326 326 326 326 327 328 328 327 328 327 325 323 321 321 321 316 309 305 297 282 273 270 270 273 273 274 276 270 267 269 267 263 263 267 275 279
89 65 36 353 323 359 24 358 52 86 255 263 234 187 194 239 246 200 227 241 221 202 187 190 201 202 197 193 192 191 191 192 195 206 219 245 298 331 339 341 343 340 337 339 342 343 340 339 339 337 337 336 334 333 332 331 330 329 327 325 324 324 323 324 324 326 327 327 327 328 327 326 323 321 320 321 318 311 303 301 295 281 271 269 271 274 273 273 274 272 268 261 258 262 267 273 278
78 80 56 13 326 349 350 299 176 217 246 258 82 162 214 242 248 237 238 247 244 210 195 197 195 190 190 190 189 189 189 191 196 206 224 259 313 330 338 342 341 338 337 340 342 341 339 339 338 336 335 334 333 331 330 330 329 327 325 324 323 322 321 322 322 324 326 326 326 326 325 324 323 321 320 318 315 308 300 300 300 292 280 273 273 276 274 271 277 278 266 258 258 261 266 271 274
138 145 131 146 349 325 292 275 277 277 269 265 99 114 262 267 265 247 244 258 253 220 212 208 195 185 186 187 184 185 187 191 199 207 225 264 317 330 337 340 338 337 338 340 341 340 339 338 337 335 333 332 332 330 329 328 327 326 324 322 322 321 320 320 321 322 324 325 324 323 322 320 319 318 317 316 313 306 298 297 299 296 286 279 278 279 276 271 276 281 269 258 259 262 265 270 273
178 157 138 162 164 223 265 266 270 292 297 276 159 160 238 243 263 255 262 282 256 213 208 198 185 181 182 180 179 183 186 190 201 208 219 265 318 330 335 338 337 336 337 339 340 340 339 337 336 333 332 331 330 329 328 327 326 324 323 321 321 320 319 319 320 321 322 323 323 321 320 318 316 315 314 313 311 305 296 294 296 295 289 285 283 281 278 274 275 280 273 259 256 263 265 269 272
220 126 118 191 185 185 245 256 241 291 308 281 216 211 227 204 230 284 312 338 76 164 169 158 164 173 174 176 179 183 187 191 200 204 213 270 314 327 332 336 336 335 338 340 341 340 338 336 333 331 330 330 329 328 327 327 325 323 322 321 321 320 319 318 319 321 321 322 322 320 319 318 316 315 313 311 309 304 297 294 295 294 289 285 279 277 278 276 276 277 274 264 255 259 265 267 271
164 129 186 225 175 145 232 280 304 53 286 277 243 259 276 280 277 326 53 60 88 127 152 151 159 169 172 177 180 183 189 192 198 202 217 274 309 323 330 335 335 336 340 341 341 339 336 333 331 330 329 328 328 327 327 326 325 323 321 321 321 320 319 318 319 321 321 321 322 321 320 318 317 314 311 309 307 304 299 295 296 292 286 284 276 274 277 275 277 275 270 267 254 253 262 263 267
134 182 222 209 104 80 118 273 324 352 249 268 260 270 278 270 267 324 64 172 200 186 170 158 164 172 176 180 182 186 191 192 196 202 221 273 306 320 329 335 336 339 341 340 339 336 334 332 330 329 328 328 328 327 327 326 325 323 321 321 321 320 319 319 320 320 320 321 322 322 320 318 317 314 310 307 304 302 298 293 293 289 284 284 278 274 275 270 272 273 266 265 253 249 258 260 263
137 210 247 134 167 269 132 150 268 259 263 272 274 282 275 250 226 226 203 204 204 196 184 178 182 184 184 183 184 187 189 191 195 201 227 270 305 323 331 336 337 340 340 338 336 333 332 331 329 328 328 327 328 327 326 326 324 323 321 321 321 320 319 319 320 320 319 320 322 321 320 317 316 314 309 305 302 300 297 292 291 289 285 287 282 274 271 266 268 270 267 268 257 250 256 261 265
82 320 318 1 189 208 184 159 199 236 270 276 285 296 281 241 182 196 207 201 194 187 186 197 198 191 186 184 185 187 189 193 196 202 234 275 310 327 332 336 337 338 337 335 333 332 331 330 329 328 328 327 327 327 327 326 325 324 322 322 321 320 320 319 320 320 319 320 321 320 318 316 314 313 309 305 302 300 297 294 294 293 288 289 286 275 268 264 266 268 267 271 264 254 256 263 270
159 195 234 235 203 188 254 221 165 209 261 271 281 281 273 241 162 197 203 199 195 184 187 202 200 190 188 187 188 190 192 194 197 209 245 289 314 326 332 335 336 335 334 333 332 331 330 330 329 329 329 328 328 327 327 326 326 325 323 323 322 321 321 320 320 321 319 320 320 318 317 315 312 311 309 305 303 301 298 294 292 290 287 287 283 274 267 265 267 268 267 269 268 262 259 262 272
180 189 199 207 203 194 268 256 205 183 238 239 256 277 271 226 156 202 189 192 197 184 189 200 192 188 189 191 192 193 195 196 200 220 266 299 315 327 332 334 334 332 332 332 331 330 330 330 330 330 330 329 329 328 328 327 326 325 324 324 323 322 322 321 321 321 320 320 320 319 318 314 309 309 309 305 303 300 297 292 288 286 284 284 282 276 270 268 269 269 268 267 266 269 267 263 269